Location: Tafessasset
(32.5899°N, 5.4824°W)
Time: 14:31:45
(UTC+00:00)

Cosmos 676 Rocket - Pass Details

Date: 18 February 2020
Orbit: 755 x 784 km, 74.0° (Epoch: 29 March)

Event Time Altitude Azimuth Distance (km) Brightness Sun altitude
Rises 06:24:48 0° 213° (SSW) 3,238 7.0 -8.6°
Reaches altitude 10° 06:27:17 10° 220° (SW) 2,319 6.2 -8.1°
Maximum altitude 06:32:16 42° 291° (WNW) 1,111 4.4 -7.1°
Drops below altitude 10° 06:37:17 10° 1° (N) 2,342 6.4 -6.0°
Sets 06:39:49 0° 9° (N) 3,275 7.3 -5.5°
